Regional Weather Roundup
Issued by NWS Little Rock, AR

Home | Current Version | Previous Version | Text Only | Print | Product List | Glossary On
Versions: 1 2 3 4 5 6 7 8 9 10 11 12 13 14 15 16 17 18 19 20 21 22 23 24 25 26 27 28 29 30 31 32 33 34 35 36 37 38 39 40 41 42 43 44 45 46 47 48 49 50
810
ASUS44 KLZK 270905
RWRLZK

WEATHER ROUNDUP FOR ARKANSAS
NATIONAL WEATHER SERVICE LITTLE ROCK AR
400 AM CDT THU APR 27 2017

NOTE: "FAIR" INDICATES FEW OR NO CLOUDS BELOW 12,000 FEET WITH NO
SIGNIFICANT WEATHER AND/OR OBSTRUCTIONS TO VISIBILITY.

ARZ001-003-010-029-271000-
NORTHWEST ARKANSAS

CITY           SKY/WX    TMP DP  RH WIND       PRES   REMARKS
FAYETTEVILLE   FOG       39  39 100 S5        29.73R VSB 1/4
FORT SMITH     CLEAR     45  42  89 W7        29.73R
HARRISON       CLEAR     42  40  92 W9        29.69R
BENTONVILLE    PTCLDY    43  39  87 CALM      29.72R
ROGERS         CLEAR     40  40 100 W3        29.73R FOG
SILOAM SPGS    PTCLDY    39  37  93 CALM      29.72S
HIGHFILL       FOG       39  39 100 NW5       29.71S VSB 3/4
$$

ARZ004-005-016-271000-
NORTH CENTRAL ARKANSAS

CITY           SKY/WX    TMP DP  RH WIND       PRES   REMARKS
BATESVILLE     CLOUDY   N/A N/A N/A W5        29.70R
FLIPPIN        PTCLDY   N/A N/A N/A CALM      29.67R
MTN HOME       PTCLDY    45  41  86 VRB3      29.68R
$$

ARZ040-041-271000-
WEST CENTRAL ARKANSAS

CITY           SKY/WX    TMP DP  RH WIND       PRES   REMARKS
MENA           CLEAR     45  45 100 S3        29.74S
MOUNT IDA      CLEAR     43  41  93 CALM      29.71S FOG
$$

ARZ009-017-025-026-028-271000-
NORTHEAST ARKANSAS

CITY           SKY/WX    TMP DP  RH WIND       PRES   REMARKS
JONESBORO      CLOUDY    50  45  83 W13       29.67R
NEWPORT        CLOUDY    50  45  83 W10       29.70R
WALNUT RIDGE   CLOUDY    50  43  76 W12       29.67R
BLYTHEVILLE    CLOUDY    51  48  89 W12G21    29.67R
$$

ARZ022-023-033-042-044-271000-
CENTRAL ARKANSAS

CITY           SKY/WX    TMP DP  RH WIND       PRES   REMARKS
LITTLE ROCK    PTCLDY    47  46  97 W6        29.74R
N LITTLE ROCK    N/A     47  44  91 W3        29.73R
JACKSONVILLE   CLEAR     47  46  96 SW6       29.72R
CONWAY           N/A     48  46  93 W7        29.72R
SEARCY         CLOUDY    51  48  89 VRB3      29.73R
HOT SPRINGS    CLEAR     46  45  96 CALM      29.75R
RUSSELLVILLE   CLEAR     45  43  93 CALM      29.73R
CLINTON          N/A     45  45 100 CALM      29.72R
$$

ARZ036-271000-
EAST ARKANSAS

CITY           SKY/WX    TMP DP  RH WIND       PRES   REMARKS
WEST MEMPHIS   CLOUDY    51  48  89 NW9G17    29.69R
$$

ARZ050-053-066-070-073-271000-
SOUTHWEST ARKANSAS

CITY           SKY/WX    TMP DP  RH WIND       PRES   REMARKS
ARKADELPHIA    FAIR      48  47  96 CALM      29.77R
CAMDEN         CLEAR     48  45  87 CALM      29.76S
TEXARKANA      CLEAR     48  46  93 W5        29.76F
EL DORADO      CLEAR     48  47  96 CALM      29.77R
DE QUEEN       CLEAR     45  45 100 SW3       29.76R
$$

ARZ056-057-069-271000-
SOUTHEAST ARKANSAS

CITY           SKY/WX    TMP DP  RH WIND       PRES   REMARKS
PINE BLUFF     CLEAR     50  46  86 W5        29.74R
STUTTGART      CLOUDY    52  39  62 W13       29.73R
MONTICELLO     CLOUDY    53  48  83 W3        29.75R

$$






USA.gov is the U.S. government's official web portal to all federal, state and local government web resources and services.